"2010-11-17 00:00:00",343021,18.02,323,3.649,0.823,10.93,101.9147,4.185,5.351,47.23,0,109.8,13.47,4.95,285.0
"2010-11-17 00:00:30",343022,18.25,322.2,3.458,0.743,10.89,101.9178,4.193,5.35,47.28,0,109.8,13.47,4.96,284.2
"2010-11-17 00:01:00",343023,17.73,323.6,3.17,0.734,11,101.9214,4.203,5.366,47.46,0,109.8,13.47,4.97,285.6
"2010-11-17 00:01:30",343024,17.79,322.6,3.875,0.759,10.66,101.9231,4.207,5.375,47.87,0,109.8,13.47,4.97,284.6
"2010-11-17 00:02:00",343025,18.58,322.3,3.542,0.734,10.83,101.9172,4.192,5.371,47.75,0,109.8,13.47,4.96,284.3
"2010-11-17 00:02:30",343026,18.98,323.5,3.761,0.707,11.1,101.9234,4.208,5.375,46.93,0,109.8,13.47,4.97,285.5
"2010-11-17 00:03:00",343027,19.03,324.1,2.871,0.685,11.3,101.9336,4.234,5.39,46.36,0,109.8,13.47,5.00,286.1
"2010-11-17 00:03:30",343028,19.57,323.3,2.826,0.759,11.09,101.9342,4.235,5.4,46.41,0,109.8,13.47,5.00,285.3
"2010-11-17 00:04:00",343029,19.07,323.3,2.78,0.89,11.17,101.9376,4.244,5.417,46.18,0,109.8,13.47,5.01,285.3
"2010-11-17 00:04:30",343030,19.04,321.9,3.04,0.873,10.97,101.9497,4.275,5.417,46.96,0,109.8,13.47,5.04,283.9
"2010-11-17 00:05:00",343031,19.72,323.8,3.589,0.736,11.3,101.9551,4.289,5.431,46.77,0,109.8,13.47,5.06,285.8
"2010-11-17 00:05:30",343032,19.32,326.2,3.337,0.863,11.37,101.9675,4.32,5.457,45.62,0,109.8,13.47,5.09,288.2
"2010-11-17 00:06:00",343033,19.28,324.6,3.027,0.826,11.1,101.9681,4.322,5.478,45.92,0,109.8,13.47,5.09,286.6
"2010-11-17 00:06:30",343034,19.59,325.7,3.56,0.707,11.21,101.9687,4.323,5.481,46.14,0,109.8,13.47,5.09,287.7
"2010-11-17 00:07:00",343035,18.92,326.4,2.825,0.77,11.22,101.9726,4.333,5.494,46.59,0,109.8,13.46,5.10,288.4
"2010-11-17 00:07:30",343036,19.07,326.9,3.167,1.022,11.2,101.9687,4.323,5.515,46.69,0,109.8,13.46,5.09,288.9
"2010-11-17 00:08:00",343037,18.94,324.7,3.215,1.173,11.3,101.974,4.337,5.517,45.31,0,109.8,13.46,5.10,286.7
"2010-11-17 00:08:30",343038,18.93,326.7,4.415,0.952,11.33,101.9808,4.354,5.534,45.62,0,109.8,13.46,5.12,288.7
"2010-11-17 00:09:00",343039,19.57,326.5,3.996,0.776,11.5,101.9935,4.387,5.52,45.32,0,109.8,13.46,5.15,288.5
"2010-11-17 00:09:30",343040,18.49,328.1,3.985,0.635,11.16,102.0015,4.407,5.55,45.81,0,109.8,13.46,5.17,290.1
"2010-11-17 00:10:00",343041,17.26,329.3,2.978,0.959,11.05,101.9933,4.386,5.571,46.79,0,109.8,13.46,5.15,291.3
"2010-11-17 00:10:30",343042,16.55,328.4,3.473,0.924,10.81,101.9794,4.351,5.542,47.1,0,109.8,13.46,5.12,290.4
"2010-11-17 00:11:00",343043,16.1,327.7,3.647,0.72,10.73,101.9687,4.323,5.54,48.22,0,109.8,13.46,5.09,289.7
"2010-11-17 00:11:30",343044,16.28,327.1,4.693,0.84,10.74,101.9449,4.263,5.51,48.31,0,109.8,13.46,5.03,289.1
"2010-11-17 00:12:00",343045,16.16,325.3,4.469,0.819,10.64,101.9342,4.235,5.501,48.32,0,109.8,13.46,5.00,287.3
"2010-11-17 00:12:30",343046,16.11,325.8,3.04,0.83,10.49,101.9231,4.207,5.451,48.5,0,109.8,13.47,4.97,287.8
"2010-11-17 00:13:00",343047,16.22,326.1,3.194,0.729,10.49,101.9062,4.164,5.427,49.31,0,109.8,13.47,4.93,288.1
"2010-11-17 00:13:30",343048,15.93,329.9,3.594,0.764,10.61,101.8966,4.139,5.398,48.9,0,109.8,13.47,4.91,291.9
"2010-11-17 00:14:00",343049,14.77,331.6,4.827,0.933,10.49,101.881,4.099,5.377,49.03,0,109.8,13.47,4.87,293.6
"2010-11-17 00:14:30",343050,14.28,334,3.236,0.847,10.34,101.8669,4.063,5.342,49.31,0,109.8,13.47,4.83,296.0
"2010-11-17 00:15:00",343051,14.63,330.9,3.432,0.715,10.26,101.8663,4.062,5.307,49.88,0,109.8,13.47,4.83,292.9
"2010-11-17 00:15:30",343052,14.35,334.9,3.584,0.96,10.18,101.8519,4.025,5.296,49.95,0,109.8,13.47,4.79,296.9
"2010-11-17 00:16:00",343053,13.73,335.1,4.313,0.907,10.01,101.8344,3.98,5.281,49.96,0,109.8,13.47,4.75,297.1
"2010-11-17 00:16:30",343054,13.98,340.5,5.121,0.912,9.8,101.8321,3.974,5.239,50.52,0,109.8,13.47,4.74,302.5
"2010-11-17 00:17:00",343055,13.36,337.4,3.57,0.795,9.86,101.8083,3.914,5.204,50.96,0,109.8,13.47,4.68,299.4
"2010-11-17 00:17:30",343056,12.52,338.9,3.723,0.856,9.56,101.7984,3.889,5.171,51.27,0,109.8,13.47,4.65,300.9
"2010-11-17 00:18:00",343057,12.21,341.1,3.6,0.921,9.55,101.7902,3.868,5.153,51.11,0,109.8,13.47,4.63,303.1
"2010-11-17 00:18:30",343058,14.24,345.3,3.198,1.219,9.75,101.786,3.857,5.11,49.67,0,109.8,13.47,4.62,307.3
"2010-11-17 00:19:00",343059,13.8,347.3,3.968,1.9,9.72,101.7981,3.888,5.092,49.53,0,109.8,13.47,4.65,309.3
"2010-11-17 00:19:30",343060,11.14,337.3,3.782,0.75,9.27,101.7936,3.876,5.107,50.9,0,109.8,13.47,4.64,299.3
"2010-11-17 00:20:00",343061,10.58,341.3,3.998,1.017,9.13,101.7727,3.823,5.088,51.48,0,109.8,13.47,4.59,303.3
"2010-11-17 00:20:30",343062,12.4,340.8,3.43,0.864,9.12,101.7645,3.802,5.062,51.03,0,109.8,13.48,4.57,302.8
"2010-11-17 00:21:00",343063,12.54,340.2,3.382,1.015,9.4,101.7645,3.802,5.038,50.53,0,109.8,13.47,4.57,302.2
"2010-11-17 00:21:30",343064,11.83,337.1,4.354,0.935,9.22,101.7645,3.802,5.041,50.04,0,109.8,13.48,4.57,299.1
"2010-11-17 00:22:00",343065,10.62,340.4,3.778,0.926,9.13,101.7645,3.802,5.041,50.41,0,109.8,13.48,4.57,302.4
"2010-11-17 00:22:30",343066,10.68,339.6,3.138,0.825,9,101.7656,3.805,5.028,50.54,0,109.8,13.48,4.57,301.6
"2010-11-17 00:23:00",343067,10.45,336.8,4.598,0.724,9.01,101.7648,3.803,5.025,50.78,0,109.8,13.47,4.57,298.8
"2010-11-17 00:23:30",343068,10.2,341.2,4.562,0.636,8.77,101.7645,3.802,5.019,51.28,0,109.8,13.47,4.57,303.2
"2010-11-17 00:24:00",343069,10,336.8,5.253,0.986,7.968,101.7645,3.802,4.97,51.4,0,109.9,13.47,4.57,298.8
"2010-11-17 00:24:30",343070,9.44,336.2,7.504,1.185,7.619,101.7563,3.781,4.918,51.4,0,109.8,13.46,4.55,298.2
"2010-11-17 00:25:00",343071,8.15,325.1,6.154,1.274,5.522,101.7408,3.741,4.843,51.58,0,109.8,13.47,4.51,287.1
"2010-11-17 00:25:30",343072,10.68,338.3,3.597,0.963,8.73,101.7309,3.716,4.895,51.37,0,109.8,13.47,4.48,300.3
"2010-11-17 00:26:00",343073,10.29,335.7,4.936,1.176,8.53,101.7306,3.715,4.937,51.81,0,109.8,13.47,4.48,297.7
"2010-11-17 00:26:30",343074,12.23,340.5,5.091,0.939,9.23,101.7306,3.715,4.941,51.1,0,109.8,13.47,4.48,302.5
"2010-11-17 00:27:00",343075,10.77,335.8,4.27,1.017,9.84,101.7306,3.715,4.963,51.16,0,109.8,13.47,4.48,297.8
"2010-11-17 00:27:30",343076,11.79,341.4,5.04,0.706,10.07,101.7416,3.743,4.96,49.97,0,109.8,13.47,4.51,303.4
"2010-11-17 00:28:00",343077,11.9,337.2,4.288,0.958,9.62,101.7566,3.782,4.958,50.82,0,109.8,13.48,4.55,299.2
"2010-11-17 00:28:30",343078,11.43,341.8,3.599,0.712,9.3,101.7473,3.758,4.985,51.77,0,109.8,13.48,4.52,303.8
"2010-11-17 00:29:00",343079,11.73,344.6,4.368,0.722,9.63,101.7317,3.718,4.953,51.29,0,109.8,13.48,4.48,306.6
"2010-11-17 00:29:30",343080,12.35,343.6,4.538,0.866,9.2,101.7314,3.717,4.95,51,0,109.8,13.48,4.48,305.6
"2010-11-17 00:30:00",343081,11.75,341.9,4.197,0.951,9.16,101.7306,3.715,4.967,51.1,0,109.8,13.48,4.48,303.9
"2010-11-17 00:30:30",343082,11.59,345.2,4.995,0.614,9.09,101.7306,3.715,4.92,51.05,0,109.8,13.48,4.48,307.2
"2010-11-17 00:31:00",343083,11.2,342.2,3.436,0.898,9.06,101.7306,3.715,4.933,50.95,0,109.8,13.48,4.48,304.2
"2010-11-17 00:31:30",343084,11.6,347.3,3.359,0.977,9.04,101.7306,3.715,4.928,50.89,0,109.8,13.48,4.48,309.3
"2010-11-17 00:32:00",343085,11.59,344.4,3.968,0.978,8.94,101.7306,3.715,4.928,50.9,0,109.8,13.48,4.48,306.4
"2010-11-17 00:32:30",343086,11.22,339.3,2.979,0.888,8.79,101.7306,3.715,4.914,51,0,109.8,13.48,4.48,301.3
"2010-11-17 00:33:00",343087,13.18,343.5,2.999,0.767,9.13,101.7306,3.715,4.914,50.92,0,109.8,13.48,4.48,305.5
"2010-11-17 00:33:30",343088,12.2,343.6,3.667,0.988,9.08,101.7306,3.715,4.918,50.74,0,109.8,13.48,4.48,305.6
"2010-11-17 00:34:00",343089,12.39,342.2,4.03,0.765,9.01,101.7306,3.715,4.94,50.88,0,109.8,13.48,4.48,304.2
"2010-11-17 00:34:30",343090,12.12,345.5,3.734,0.862,9,101.7306,3.715,4.909,50.92,0,109.8,13.48,4.48,307.5
"2010-11-17 00:35:00",343091,12.64,341,4.194,0.622,9.01,101.7306,3.715,4.914,51.14,0,109.8,13.48,4.48,303.0
"2010-11-17 00:35:30",343092,11.98,344.2,3.526,0.887,9.11,101.7306,3.715,4.923,50.85,0,109.8,13.48,4.48,306.2
"2010-11-17 00:36:00",343093,12.43,346,2.922,0.875,9.01,101.7306,3.715,4.939,51.05,0,109.8,13.48,4.48,308.0
"2010-11-17 00:36:30",343094,11.98,343.5,3.601,0.869,9.01,101.7306,3.715,4.92,51,0,109.8,13.48,4.48,305.5
"2010-11-17 00:37:00",343095,11.57,347.1,3.852,0.794,9.2,101.7306,3.715,4.914,50.87,0,109.8,13.48,4.48,309.1
"2010-11-17 00:37:30",343096,11.5,344.3,4.043,0.707,8.83,101.7306,3.715,4.907,51.03,0,109.8,13.48,4.48,306.3
"2010-11-17 00:38:00",343097,10.97,340.8,6.983,1.062,8.8,101.7306,3.715,4.925,51.01,0,109.8,13.48,4.48,302.8
"2010-11-17 00:38:30",343098,11.58,340.2,4.65,0.646,8.84,101.7306,3.715,4.911,51.19,0,109.8,13.48,4.48,302.2
"2010-11-17 00:39:00",343099,12,343.3,4.901,1.143,9.03,101.7306,3.715,4.91,51.25,0,109.8,13.48,4.48,305.3
"2010-11-17 00:39:30",343100,11.72,343.8,4.111,1.262,8.84,101.7309,3.716,4.907,50.87,0,109.8,13.48,4.48,305.8
"2010-11-17 00:40:00",343101,12.04,340.8,5.485,1.369,8.83,101.7309,3.716,4.922,50.88,0,109.8,13.48,4.48,302.8
"2010-11-17 00:40:30",343102,13.22,346.9,4.408,1.02,8.92,101.7309,3.716,4.895,51.17,0,109.8,13.47,4.48,308.9
"2010-11-17 00:41:00",343103,14.23,343.6,3.17,0.804,9.22,101.7306,3.715,4.915,50.55,0,109.8,13.47,4.48,305.6
"2010-11-17 00:41:30",343104,13.74,345.7,3.133,1.031,9.18,101.7306,3.715,4.895,50.21,0,109.8,13.47,4.48,307.7
"2010-11-17 00:42:00",343105,13.35,347.1,3.284,0.973,9.16,101.7309,3.716,4.917,50.97,0,109.8,13.47,4.48,309.1
"2010-11-17 00:42:30",343106,12.99,343.7,3.459,0.933,9.03,101.7277,3.708,4.883,51.21,0,109.8,13.47,4.47,305.7
"2010-11-17 00:43:00",343107,13.27,345.9,3.592,0.865,9.21,101.706,3.653,4.886,51.14,0,109.8,13.47,4.42,307.9
"2010-11-17 00:43:30",343108,12.94,343.3,4.081,0.856,9.11,101.6966,3.629,4.859,51.21,0,109.8,13.47,4.39,305.3
"2010-11-17 00:44:00",343109,12.43,343.8,3.455,0.776,9.04,101.6966,3.629,4.883,51.26,0,109.8,13.47,4.39,305.8
"2010-11-17 00:44:30",343110,12.38,339.2,3.942,1.174,9.14,101.6972,3.63,4.865,50.72,0,109.8,13.48,4.39,301.2
"2010-11-17 00:45:00",343111,14.02,335.5,3.873,0.738,9.33,101.6969,3.629,4.856,49.66,0,109.8,13.48,4.39,297.5
"2010-11-17 00:45:30",343112,13.39,337.2,3.934,0.776,9.39,101.7031,3.645,4.866,49.55,0,109.8,13.48,4.41,299.2
"2010-11-17 00:46:00",343113,12.64,340.4,3.438,1.076,9.37,101.7246,3.7,4.888,49.95,0,109.8,13.48,4.47,302.4
"2010-11-17 00:46:30",343114,13.16,336.6,3.48,0.955,9.3,101.7278,3.708,4.882,50.13,0,109.8,13.48,4.47,298.6
"2010-11-17 00:47:00",343115,13.1,335.7,3.5,0.759,9.5,101.73,3.714,4.885,49.79,0,109.8,13.48,4.48,297.7
"2010-11-17 00:47:30",343116,12.73,337.1,3.873,0.663,9.38,101.7309,3.716,4.883,49.93,0,109.8,13.48,4.48,299.1
"2010-11-17 00:48:00",343117,12.63,338.1,3.903,0.632,9.24,101.7306,3.715,4.901,50.08,0,109.8,13.48,4.48,300.1
"2010-11-17 00:48:30",343118,12.89,338.5,3.713,0.8,9.25,101.7295,3.712,4.877,50.13,0,109.8,13.48,4.48,300.5
"2010-11-17 00:49:00",343119,12.44,337.4,3.064,0.721,9.34,101.7297,3.713,4.888,49.68,0,109.8,13.48,4.48,299.4
"2010-11-17 00:49:30",343120,11.8,339.5,3.281,0.839,9.22,101.7286,3.71,4.877,49.89,0,109.8,13.48,4.48,301.5
"2010-11-17 00:50:00",343121,11.69,339.8,4.008,0.877,9.06,101.713,3.671,4.893,50.41,0,109.8,13.48,4.44,301.8
"2010-11-17 00:50:30",343122,11.43,340.8,2.925,0.933,8.98,101.698,3.632,4.883,50.54,0,109.8,13.48,4.40,302.8
"2010-11-17 00:51:00",343123,11.16,341.3,3.671,0.677,9.23,101.6972,3.63,4.871,50.2,0,109.8,13.48,4.39,303.3
"2010-11-17 00:51:30",343124,10.45,343.7,4.774,0.737,8.89,101.6972,3.63,4.858,50.42,0,109.8,13.48,4.39,305.7
"2010-11-17 00:52:00",343125,9.72,349.7,3.611,0.892,8.88,101.6972,3.63,4.866,50.44,0,109.8,13.48,4.39,311.7
"2010-11-17 00:52:30",343126,9.12,345.8,5.061,1.075,7.785,101.698,3.632,4.844,50.39,0,109.8,13.48,4.40,307.8
"2010-11-17 00:53:00",343127,8.48,338.5,6.498,1.239,5.915,101.6978,3.632,4.65,50.62,0,109.8,13.48,4.40,300.5
"2010-11-17 00:53:30",343128,8.21,339,5.888,0.842,6.281,101.6975,3.631,4.714,50.79,0,109.8,13.49,4.40,301.0
"2010-11-17 00:54:00",343129,8.15,346.6,5.767,1.177,7.967,101.6975,3.631,4.797,50.59,0,109.8,13.48,4.40,308.6
"2010-11-17 00:54:30",343130,7.297,350.8,6.965,0.972,9.07,101.7094,3.661,4.829,50.43,0,109.8,13.49,4.43,312.8
"2010-11-17 00:55:00",343131,7.462,353.4,5.208,0.918,8.96,101.7306,3.715,4.841,50.66,0,109.8,13.49,4.48,315.4
"2010-11-17 00:55:30",343132,5.03,357.9,8.84,1.861,8.41,101.7294,3.712,4.83,50.83,0,109.8,13.49,4.48,319.9
"2010-11-17 00:56:00",343133,5.624,338.8,8.88,0.78,5.325,101.7218,3.693,4.61,51.13,0,109.7,13.49,4.46,300.8
"2010-11-17 00:56:30",343134,5.605,336.5,1.835,0.222,4.577,101.6975,3.631,4.662,51.57,0,109.8,13.52,4.40,298.5
"2010-11-17 00:57:00",343135,6.006,356.5,7.332,1.504,8.15,101.6975,3.631,4.772,51.25,0,109.8,13.48,4.40,318.5
"2010-11-17 00:57:30",343136,5.861,1.877,5.254,1.091,9.08,101.7023,3.643,4.781,50.65,0,109.8,13.48,4.41,323.9
"2010-11-17 00:58:00",343137,4.8,352.5,12.67,1.25,7.741,101.7179,3.683,4.82,51.04,0,109.8,13.49,4.45,314.5
"2010-11-17 00:58:30",343138,4.355,346.5,10.05,0.981,6.489,101.7286,3.71,4.765,51.19,0,109.8,13.48,4.48,308.5
"2010-11-17 00:59:00",343139,4.32,349.2,6.138,1.606,6.258,101.7063,3.653,4.648,51.53,0,109.8,13.49,4.42,311.2
"2010-11-17 00:59:30",343140,1.064,4.413,7.717,0.566,4.533,101.6972,3.63,4.559,51.13,0,109.8,13.52,4.39,326.4
"2010-11-17 01:00:00",343141,1.939,7.233,11.14,1.258,6.492,101.6992,3.635,4.77,51.14,0,109.8,13.49,4.40,329.2
"2010-11-17 01:00:30",343142,3.838,5.566,9.54,1.13,8.03,101.7023,3.643,4.795,51.31,0,109.8,13.49,4.41,327.6
"2010-11-17 01:01:00",343143,2.842,16.38,5.81,1.264,6.472,101.7018,3.642,4.666,51.14,0,109.8,13.49,4.41,338.4
"2010-11-17 01:01:30",343144,2.568,20.8,5.326,0.98,5.721,101.7063,3.653,4.731,51.05,0,109.8,13.5,4.42,342.8
"2010-11-17 01:02:00",343145,2.797,20.78,8.18,1.402,6.478,101.7049,3.65,4.617,51.07,0,109.7,13.5,4.41,342.8
"2010-11-17 01:02:30",343146,3.106,22,7.422,1.276,6.633,101.7004,3.638,4.716,51.17,0,109.8,13.5,4.40,344.0
"2010-11-17 01:03:00",343147,1.247,11.34,5.225,0.174,4.582,101.7032,3.646,4.567,50.97,0,109.8,13.54,4.41,333.3
"2010-11-17 01:03:30",343148,2.869,16.35,14.68,1.487,7.142,101.7035,3.646,4.707,51.04,0,109.8,13.5,4.41,338.4
"2010-11-17 01:04:00",343149,3.523,23.09,7.959,1.274,8.07,101.7075,3.656,4.825,50.85,0,109.8,13.5,4.42,345.1
"2010-11-17 01:04:30",343150,3.228,16.95,6.271,1.135,6.466,101.7284,3.71,4.757,50.54,0,109.8,13.5,4.47,339.0
"2010-11-17 01:05:00",343151,4.62,19.19,6.721,1.175,8.11,101.7389,3.737,4.674,50.21,0,109.8,13.5,4.50,341.2
"2010-11-17 01:05:30",343152,2.487,8.33,6.699,0.661,5.054,101.7378,3.734,4.71,50.09,0,109.7,13.5,4.50,330.3
"2010-11-17 01:06:00",343153,4.402,357.6,10.18,0.91,6.626,101.7457,3.754,4.667,48.72,0,109.7,13.5,4.52,319.6
"2010-11-17 01:06:30",343154,3.3,4.793,8.1,1.551,6.759,101.7796,3.841,4.726,47.11,0,109.7,13.5,4.61,326.8
"2010-11-17 01:07:00",343155,3.966,12.31,10.05,1.244,7.914,101.8082,3.914,4.931,48.53,0,109.7,13.5,4.68,334.3
"2010-11-17 01:07:30",343156,3.535,14.84,11.33,1.23,7.519,101.8097,3.917,4.945,48.57,0,109.7,13.5,4.68,336.8
"2010-11-17 01:08:00",343157,3.742,0.494,12.63,1.174,5.786,101.8094,3.916,4.785,48.31,0,109.7,13.5,4.68,322.5
"2010-11-17 01:08:30",343158,3.907,352.7,6.211,1.02,5.185,101.8094,3.916,4.896,48.54,0,109.7,13.5,4.68,314.7
"2010-11-17 01:09:00",343159,5.2,359.8,7.888,1.289,6.958,101.8094,3.916,4.818,47.3,0,109.8,13.5,4.68,321.8
"2010-11-17 01:09:30",343160,6.437,353.1,6.58,1.138,8.68,101.8405,3.996,5.02,46.46,0,109.7,13.5,4.76,315.1
"2010-11-17 01:10:00",343161,6.251,348.7,4.977,1.021,8.53,101.8538,4.03,5.075,46.18,0,109.7,13.5,4.80,310.7
"2010-11-17 01:10:30",343162,6.423,340.9,6.101,1.207,8.25,101.8801,4.097,5.111,46.14,0,109.7,13.5,4.86,302.9
"2010-11-17 01:11:00",343163,6.478,344.7,7.316,1.192,7.853,101.8804,4.098,5.073,45.44,0,109.7,13.5,4.86,306.7
"2010-11-17 01:11:30",343164,5.069,332.2,3.681,0.25,5.145,101.9065,4.164,5.032,44.76,0,109.7,13.54,4.93,294.2
"2010-11-17 01:12:00",343165,7.398,334.8,6.97,1.082,8.31,101.9209,4.201,5.115,43.58,0,109.7,13.5,4.97,296.8
"2010-11-17 01:12:30",343166,7.533,338.5,4.504,1.237,9.01,101.9464,4.266,5.271,43.84,0,109.7,13.5,5.03,300.5
"2010-11-17 01:13:00",343167,8.5,339.3,4.691,0.803,9.88,101.9532,4.284,5.337,43.66,0,109.8,13.5,5.05,301.3
"2010-11-17 01:13:30",343168,7.298,336,6.592,1.175,8.32,101.958,4.296,5.343,43.16,0,109.7,13.5,5.06,298.0
"2010-11-17 01:14:00",343169,7.859,336.9,6.654,1.072,8.49,101.9843,4.363,5.323,42.4,0,109.7,13.5,5.13,298.9
"2010-11-17 01:14:30",343170,7.324,331,7.088,1.334,7.221,101.9888,4.375,5.227,41.91,0,109.7,13.49,5.14,293.0
"2010-11-17 01:15:00",343171,8.44,334.3,7.001,1.313,8.45,102.0075,4.422,5.413,42.3,0,109.7,13.49,5.19,296.3
"2010-11-17 01:15:30",343172,8.98,334.6,6.262,0.951,9.42,102.0202,4.455,5.435,42.03,0,109.7,13.5,5.22,296.6
"2010-11-17 01:16:00",343173,9.61,339.9,4.073,0.798,10.51,102.0231,4.462,5.548,41.63,0,109.7,13.5,5.23,301.9
"2010-11-17 01:16:30",343174,8.99,337.6,5.369,1.089,9.89,102.0406,4.507,5.574,41.22,0,109.7,13.5,5.27,299.6
"2010-11-17 01:17:00",343175,8.54,331.4,6.097,1.16,9.1,102.0576,4.55,5.549,40.8,0,109.7,13.5,5.32,293.4
"2010-11-17 01:17:30",343176,7.598,327.9,7.571,1.246,6.92,102.064,4.567,5.361,40.43,0,109.7,13.5,5.33,289.9
"2010-11-17 01:18:00",343177,7.289,328.9,6.594,1.206,7.098,102.0896,4.632,5.563,40.64,0,109.8,13.5,5.40,290.9
"2010-11-17 01:18:30",343178,8.07,336.8,6.19,1.213,9.4,102.0907,4.635,5.633,40.74,0,109.8,13.5,5.40,298.8
"2010-11-17 01:19:00",343179,8.48,340.3,4.884,1.014,9.92,102.0921,4.638,5.675,40.64,0,109.8,13.5,5.41,302.3
"2010-11-17 01:19:30",343180,8.49,341.9,4.851,0.88,10.06,102.1,4.659,5.737,40.66,0,109.8,13.5,5.43,303.9
"2010-11-17 01:20:00",343181,8.09,341.9,5.474,1.009,9.45,102.1178,4.704,5.705,40.47,0,109.8,13.5,5.47,303.9
"2010-11-17 01:20:30",343182,6.588,340.7,4.973,1.222,7.28,102.1261,4.725,5.685,40.57,0,109.8,13.5,5.49,302.7
"2010-11-17 01:21:00",343183,6.813,340,7.244,1.155,6.782,102.1229,4.717,5.556,40.33,0,109.8,13.5,5.49,302.0
"2010-11-17 01:21:30",343184,6.414,338.3,7.014,1.109,7.006,102.1238,4.719,5.689,40.45,0,109.8,13.5,5.49,300.3
"2010-11-17 01:22:00",343185,7.41,337.6,5.148,1.113,9.34,102.1246,4.721,5.794,40.51,0,109.8,13.5,5.49,299.6
"2010-11-17 01:22:30",343186,7.827,344.6,3.773,0.992,10.29,102.1249,4.722,5.848,40.38,0,109.8,13.5,5.49,306.6
"2010-11-17 01:23:00",343187,8.38,347.4,2.581,1.005,10.01,102.1317,4.739,5.877,40.29,0,109.8,13.5,5.51,309.4
"2010-11-17 01:23:30",343188,7.531,342.4,7.406,1.021,8.58,102.1368,4.752,5.698,40.08,0,109.8,13.5,5.52,304.4
"2010-11-17 01:24:00",343189,5.832,339.7,6.867,0.919,6.449,102.1347,4.747,5.718,40.24,0,109.8,13.5,5.52,301.7
"2010-11-17 01:24:30",343190,5.265,343.1,6.311,0.921,6.12,102.133,4.743,5.576,39.99,0,109.8,13.5,5.51,305.1
"2010-11-17 01:25:00",343191,7.29,346.4,7.963,1.249,9.09,102.1418,4.765,5.798,39.95,0,109.8,13.5,5.53,308.4
"2010-11-17 01:25:30",343192,7.156,347.3,4.913,0.885,10.16,102.1551,4.799,5.906,40.11,0,109.8,13.5,5.57,309.3
"2010-11-17 01:26:00",343193,6.484,343.1,5.325,0.889,10.01,102.1506,4.788,5.896,40.35,0,109.8,13.5,5.56,305.1
"2010-11-17 01:26:30",343194,6.395,353.2,6.688,1.248,8.78,102.1395,4.759,5.804,40.22,0,109.8,13.5,5.53,315.2
"2010-11-17 01:27:00",343195,5.399,345.8,4.747,1.062,6.08,102.1375,4.754,5.73,40.27,0,109.8,13.5,5.52,307.8
"2010-11-17 01:27:30",343196,4.66,339.6,3.965,0.639,5.423,102.1299,4.735,5.604,40.29,0,109.8,13.5,5.50,301.6
"2010-11-17 01:28:00",343197,5.233,348.4,7.847,1.087,8.12,102.131,4.738,5.791,40.19,0,109.8,13.5,5.51,310.4
"2010-11-17 01:28:30",343198,5.655,356.8,8.23,1.064,9.73,102.1341,4.746,5.885,40.28,0,109.8,13.5,5.51,318.8
"2010-11-17 01:29:00",343199,5.565,352.1,6.228,1.208,9.17,102.1404,4.762,5.847,40.12,0,109.8,13.5,5.53,314.1
"2010-11-17 01:29:30",343200,5.492,351.3,6.19,1.164,8.97,102.1389,4.758,5.804,40.22,0,109.8,13.49,5.53,313.3
"2010-11-17 01:30:00",343201,4.045,336.4,8.06,0.922,5.528,102.129,4.733,5.642,40.27,0,109.8,13.5,5.50,298.4
"2010-11-17 01:30:30",343202,4.261,338.4,9.34,1.068,6.788,102.1228,4.717,5.661,40.35,0,109.8,13.49,5.49,300.4
"2010-11-17 01:31:00",343203,3.368,341,8.48,1.074,6.596,102.1162,4.7,5.715,40.57,0,109.8,13.5,5.47,303.0
"2010-11-17 01:31:30",343204,3.935,352.4,8.92,1.177,7.849,102.1134,4.693,5.736,40.91,0,109.8,13.5,5.46,314.4
"2010-11-17 01:32:00",343205,4.223,351.3,7.736,1.137,8.53,102.0865,4.624,5.836,41.31,0,109.8,13.5,5.39,313.3
"2010-11-17 01:32:30",343206,4.543,352,6.976,1.148,8.61,102.0783,4.603,5.752,41.85,0,109.8,13.5,5.37,314.0
"2010-11-17 01:33:00",343207,3.749,351.6,6.317,1.288,7.315,102.0545,4.542,5.712,42.11,0,109.8,13.5,5.31,313.6
"2010-11-17 01:33:30",343208,2.859,342.5,10.11,0.833,5.137,102.0426,4.512,5.49,42.26,0,109.8,13.5,5.28,304.5
"2010-11-17 01:34:00",343209,3.717,343.5,8.51,1.373,6.662,102.0282,4.475,5.551,42.36,0,109.8,13.5,5.24,305.5
"2010-11-17 01:34:30",343210,4.098,342.4,8.16,1.32,7,102.0141,4.439,5.552,42.66,0,109.8,13.51,5.21,304.4
"2010-11-17 01:35:00",343211,3.75,335.4,5.826,1.171,5.87,102.0107,4.43,5.431,42.35,0,109.8,13.51,5.20,297.4
"2010-11-17 01:35:30",343212,5.663,342,4.508,0.809,9.44,102.0118,4.433,5.644,42.53,0,109.8,13.51,5.20,304.0
"2010-11-17 01:36:00",343213,4.544,341.2,7.649,1.304,7.929,102.0118,4.433,5.576,42.32,0,109.8,13.51,5.20,303.2
"2010-11-17 01:36:30",343214,3.927,336.1,7.776,1.053,6.304,102.0184,4.45,5.44,42.06,0,109.8,13.51,5.22,298.1
"2010-11-17 01:37:00",343215,3.981,330.1,6.176,1.352,7.119,102.0439,4.515,5.504,41.57,0,109.8,13.51,5.28,292.1
"2010-11-17 01:37:30",343216,4.279,327.6,9.88,1.342,7.042,102.0594,4.555,5.556,41.29,0,109.8,13.51,5.32,289.6
"2010-11-17 01:38:00",343217,5.092,337,15.18,1.164,7.838,102.0824,4.614,5.563,41.14,0,109.8,13.51,5.38,299.0
"2010-11-17 01:38:30",343218,5.927,337.6,7.769,1.083,9.16,102.0883,4.629,5.724,41.15,0,109.8,13.51,5.40,299.6
"2010-11-17 01:39:00",343219,5.995,344.2,4.979,1.029,9.11,102.1124,4.69,5.723,40.93,0,109.8,13.51,5.46,306.2
"2010-11-17 01:39:30",343220,6.306,342.9,5.835,1.028,9.3,102.1185,4.706,5.737,40.88,0,109.8,13.51,5.47,304.9
"2010-11-17 01:40:00",343221,6.215,337.7,7.709,1.455,7.019,102.1301,4.735,5.69,40.87,0,109.8,13.51,5.50,299.7
"2010-11-17 01:40:30",343222,5.887,323.7,5.132,1.028,7.442,102.1298,4.735,5.699,40.94,0,109.8,13.51,5.50,285.7
"2010-11-17 01:41:00",343223,5.4,336.7,8.21,1.492,8.16,102.1349,4.748,5.678,40.33,0,109.8,13.51,5.52,298.7
"2010-11-17 01:41:30",343224,6.912,343,7.227,1.345,9.73,102.1499,4.786,5.848,39.64,0,109.8,13.51,5.55,305.0
"2010-11-17 01:42:00",343225,5.8,341.3,13.32,0.901,9.85,102.1689,4.834,5.883,39.08,0,109.8,13.51,5.60,303.3
"2010-11-17 01:42:30",343226,5.499,335.4,7.197,1.222,8.42,102.1867,4.88,5.853,39.07,0,109.8,13.51,5.65,297.4
"2010-11-17 01:43:00",343227,5.081,340.1,7.873,1.059,7.07,102.1972,4.907,5.752,39.38,0,109.8,13.51,5.68,302.1
"2010-11-17 01:43:30",343228,5.042,333.6,9.37,1.237,7.042,102.1968,4.906,5.85,39.73,0,109.8,13.51,5.67,295.6
"2010-11-17 01:44:00",343229,5.474,333.4,8.37,1.206,7.872,102.1921,4.894,5.812,39.95,0,109.8,13.51,5.66,295.4
"2010-11-17 01:44:30",343230,5.946,338.7,8.65,1.327,8.97,102.183,4.87,5.886,40.44,0,109.8,13.5,5.64,300.7
"2010-11-17 01:45:00",343231,6.719,334.1,6.697,1.029,9.76,102.1827,4.87,6.008,40.45,0,109.8,13.5,5.64,296.1
"2010-11-17 01:45:30",343232,6.513,336.3,6.519,1.257,9.4,102.1833,4.871,5.951,40.13,0,109.8,13.5,5.64,298.3
"2010-11-17 01:46:00",343233,5.324,333.8,5.514,1.248,8.35,102.1824,4.869,5.855,39.65,0,109.8,13.5,5.64,295.8
"2010-11-17 01:46:30",343234,4.149,333.7,6.749,1.022,6.711,102.1795,4.862,5.871,39.97,0,109.8,13.5,5.63,295.7
"2010-11-17 01:47:00",343235,5.094,337,8.35,1.551,7.242,102.1818,4.867,5.864,39.9,0,109.8,13.5,5.64,299.0
"2010-11-17 01:47:30",343236,6.132,345.6,9.75,1.324,9.17,102.1812,4.866,5.973,39.47,0,109.8,13.5,5.63,307.6
"2010-11-17 01:48:00",343237,6.98,353,6.415,1.271,9.72,102.183,4.87,6.004,39.38,0,109.8,13.5,5.64,315.0
"2010-11-17 01:48:30",343238,7.479,347,6.609,1.031,9.27,102.19,4.888,5.998,39,0,109.8,13.5,5.66,309.0
"2010-11-17 01:49:00",343239,7.467,346,5.912,1.083,9.36,102.203,4.922,6.019,38.48,0,109.8,13.5,5.69,308.0
"2010-11-17 01:49:30",343240,6.361,342,6.474,1.414,7.726,102.212,4.945,5.852,38.12,0,109.8,13.5,5.71,304.0